Location: Newark
(52.4787°S, 179.0532°W)
Time: 09:09:02
(UTC+00:00)

ISS - Pass Details

Date: 21 October 2019
Orbit: 412 x 421 km, 51.6° (Epoch: 21 November)

Event Time Altitude Azimuth Distance (km) Brightness Sun altitude
Rises 09:25:39 0° 284° (WNW) 2,375 0.3 -20.5°
Reaches altitude 10° 09:27:45 10° 286° (WNW) 1,514 -0.7 -20.7°
Enters shadow 09:29:55 36° 296° (WNW) 696 -2.7 -20.9°
